Langston, OK (73050)

10:51 AM CDT on August 23, 2014 (GMT -0500)
Near Antelope Creek | Change Station
CLOSE
Current Station
Personal Weather Station
Location: Guthrie, OK
Elevation: 1109 ft
Nearby Weather Stations

Elev 1109 ft 35.91 °N, 97.35 °W | Updated 4 seconds ago

Clear
Clear
89.9 °F
Feels Like 92 °F
N
9.0
Wind Variable Wind from SW
Gusts 17.0 mph

Today
High -- | Low -- °F
--% Chance of Precip.
Yesterday
High -- | Low -- °F
Precip. -- in
6:53 AM 8:08 PM
Waning Crescent, 3% visible
Pressure 29.92 in
Visibility 10.0 miles
Clouds Clear
Heat Index 92 °F
Dew Point 66 °F
Humidity 45%
Rainfall 0.00 in
Snow Depth Not available.
UV 4 out of 12
Pollen 10.00 out of 12
Air Quality Not available.
Flu Activity Not available.
METAR KGOK 231453Z AUTO 21012KT 10SM CLR 31/16 A2995 RMK AO2 SLP130 T03060161 51006

More Conditions Fewer Conditions

Pressure 29.92 in
Visibility 10.0 miles
Clouds Clear
Heat Index 92 °F
Dew Point 66 °F
Humidity 45%
Rainfall 0.00 in
Snow Depth Not available.
UV 4 out of 12
Pollen 10.00 out of 12
Air Quality Not available.
Flu Activity Not available.
METAR KGOK 231453Z AUTO 21012KT 10SM CLR 31/16 A2995 RMK AO2 SLP130 T03060161 51006

More Conditions Fewer Conditions

10-Day Weather Forecast

Almanac

Astronomy

Aug. 23, 2014 Rise Set
Actual Time 6:53 AM CDT 8:08 PM CDT
Civil Twilight 6:27 AM CDT 8:35 PM CDT
Nautical Twilight 5:55 AM CDT 9:07 PM CDT
Astronomical Twilight 5:22 AM CDT 9:40 PM CDT
Moon 5:12 AM CDT 6:53 PM CDT
Length of Visible Light 14h 08m
Length of Day
13h 14m
Tomorrow will be 2m 6s shorter.
Waning Crescent, 3% of the Moon is Illuminated
Today
Waning Crescent
Aug 25
New
Sep 2
First Quarter
Sep 8
Full
Sep 15
Last Quarter

Today's Extremes

State Highs State Lows

Community

WunderPhotos

Upload Photos

1,746,502 photos uploaded!

WunderBlogs® & News

By Dr. Jeff Masters
Director of Meteorology, Weather Underground
By Kari Strenfel
Meteorologist, Weather Underground
By Christopher C. Burt
Weather Historian, Weather Underground
August 23, 2014
August 23, 2014
August 23, 2014

Nearby

Snow Depth

Station Depth Elevation
No new snow has been reported.

Earthquake Activity

City Distance Mag. Time & Date
Yale, Oklahoma 34 miles 2.5 11:22 AM CDT
2014-08-18
Waukomis, Oklahoma 34 miles 2.6 9:40 AM CDT
2014-08-18
Yale, Oklahoma 26 miles 2.5 8:07 AM CDT
2014-08-18
Boley, Oklahoma 58 miles 3.4 9:50 PM CDT
2014-08-17
Minimum magnitude displayed is 2.5.

Coastal Water Temperatures

Place Temperature
No Stations Reporting

Nearby Weather Stations